When you browse on this site, cookies collect data to enhance your experience and personalize the content and advertising you see.
Visit our Privacy Policy to learn more. By continuing to use the site, you agree to this use of cookies and data.
  • In Österreich
  • Länderverzeichnis
  • Für 7 Tage
  • Wassertemperatur
  • Wetterkarte
  • News
  • Widgets
  • user-avatar
    Anmelden

    Stündliche Wetter Kalat

    Heute, 18 Februar, Dienstag

    Zeit Temperatur Niederschläge Wind Luftdruck Luftfeuchtigkeit
    00:00 -14°C° 0 mm 1 m/S 467 mmHg 50%
    01:00 -14°C° 0 mm 1 m/S 466 mmHg 50%
    02:00 -14°C° 0 mm 1 m/S 466 mmHg 50%
    03:00 -13°C° 0 mm 1 m/S 467 mmHg 56%
    04:00 -12°C° 0 mm 1 m/S 467 mmHg 61%
    05:00 -12°C° 0 mm 1 m/S 467 mmHg 67%
    06:00 -12°C° 0 mm 1 m/S 467 mmHg 70%
    07:00 -11°C° 0 mm 1 m/S 468 mmHg 74%
    08:00 -11°C° 0 mm 1 m/S 468 mmHg 77%
    09:00 -10°C° 0 mm 1 m/S 469 mmHg 75%
    10:00 -9°C° 0 mm 2 m/S 471 mmHg 73%
    11:00 -7°C° 0 mm 2 m/S 472 mmHg 72%
    12:00 -6°C° 0 mm 2 m/S 472 mmHg 72%
    13:00 -6°C° 0 mm 2 m/S 472 mmHg 72%
    14:00 -5°C° 0 mm 2 m/S 473 mmHg 72%
    15:00 -6°C° 0.2 mm 2 m/S 472 mmHg 78%
    16:00 -6°C° 0.2 mm 2 m/S 472 mmHg 84%
    17:00 -7°C° 0.2 mm 2 m/S 471 mmHg 90%
    18:00 -8°C° 0.3 mm 2 m/S 471 mmHg 92%
    19:00 -9°C° 0.3 mm 2 m/S 470 mmHg 94%
    20:00 -12°C° 0.3 mm 2 m/S 469 mmHg 96%
    21:00 -10°C° 0.3 mm 1 m/S 469 mmHg 96%
    22:00 -11°C° 0.3 mm 1 m/S 469 mmHg 96%
    23:00 -11°C° 0.3 mm 1 m/S 468 mmHg 96%

    Morgen, 19 Februar, Mittwoch

    Zeit Temperatur Niederschläge Wind Luftdruck Luftfeuchtigkeit
    00:00 -12°C° 0.2 mm 1 m/S 467 mmHg 96%
    01:00 -13°C° 0.2 mm 1 m/S 466 mmHg 97%
    02:00 -14°C° 0.2 mm 1 m/S 466 mmHg 97%
    03:00 -14°C° 0.2 mm 1 m/S 465 mmHg 97%
    04:00 -14°C° 0.2 mm 1 m/S 465 mmHg 98%
    05:00 -15°C° 0.2 mm 1 m/S 465 mmHg 98%
    06:00 -14°C° 0.3 mm 1 m/S 466 mmHg 97%
    07:00 -14°C° 0.3 mm 1 m/S 466 mmHg 96%
    08:00 -13°C° 0.3 mm 1 m/S 467 mmHg 95%
    09:00 -12°C° 0.2 mm 1 m/S 468 mmHg 92%
    10:00 -11°C° 0.2 mm 1 m/S 468 mmHg 89%
    11:00 -11°C° 0.2 mm 1 m/S 469 mmHg 85%
    12:00 -12°C° 0.1 mm 2 m/S 469 mmHg 82%
    13:00 -10°C° 0.1 mm 2 m/S 470 mmHg 80%
    14:00 -9°C° 0.1 mm 2 m/S 470 mmHg 77%
    15:00 -9°C° 0.1 mm 2 m/S 470 mmHg 81%
    16:00 -9°C° 0.1 mm 1 m/S 469 mmHg 85%
    17:00 -10°C° 0.1 mm 1 m/S 468 mmHg 90%
    18:00 -12°C° 0 mm 1 m/S 467 mmHg 90%
    19:00 -14°C° 0 mm 1 m/S 466 mmHg 90%
    20:00 -16°C° 0 mm 1 m/S 465 mmHg 90%
    21:00 -15°C° 0 mm 1 m/S 465 mmHg 89%
    22:00 -15°C° 0 mm 1 m/S 466 mmHg 88%
    23:00 -15°C° 0 mm 1 m/S 466 mmHg 87%

    übermorgen, 20 Februar, Donnerstag

    Zeit Temperatur Niederschläge Wind Luftdruck Luftfeuchtigkeit
    00:00 -15°C° 0 mm 1 m/S 466 mmHg 86%
    01:00 -14°C° 0 mm 1 m/S 466 mmHg 86%
    02:00 -14°C° 0 mm 1 m/S 467 mmHg 85%
    03:00 -15°C° 0 mm 1 m/S 466 mmHg 85%
    04:00 -15°C° 0 mm 1 m/S 466 mmHg 84%
    05:00 -15°C° 0 mm 1 m/S 466 mmHg 84%
    06:00 -15°C° 0 mm 1 m/S 466 mmHg 82%
    07:00 -14°C° 0 mm 1 m/S 467 mmHg 81%
    08:00 -13°C° 0 mm 1 m/S 467 mmHg 80%
    09:00 -12°C° 0 mm 1 m/S 469 mmHg 76%
    10:00 -10°C° 0 mm 1 m/S 470 mmHg 73%
    11:00 -9°C° 0 mm 2 m/S 471 mmHg 70%
    12:00 -7°C° 0.1 mm 1 m/S 471 mmHg 66%
    13:00 -6°C° 0.1 mm 1 m/S 472 mmHg 63%
    14:00 -4°C° 0.1 mm 1 m/S 472 mmHg 59%
    15:00 -4°C° 0.1 mm 1 m/S 472 mmHg 64%
    16:00 -6°C° 0.1 mm 1 m/S 471 mmHg 69%
    17:00 -7°C° 0.1 mm 2 m/S 471 mmHg 74%
    18:00 -8°C° 0 mm 1 m/S 470 mmHg 73%
    19:00 -11°C° 0 mm 1 m/S 468 mmHg 72%
    20:00 -13°C° 0 mm 1 m/S 467 mmHg 70%
    21:00 -13°C° 0 mm 1 m/S 466 mmHg 66%
    22:00 -16°C° 0 mm 2 m/S 466 mmHg 61%
    23:00 -16°C° 0 mm 2 m/S 466 mmHg 57%

    21 Februar, Freitag

    Zeit Temperatur Niederschläge Wind Luftdruck Luftfeuchtigkeit
    00:00 -16°C° 0 mm 2 m/S 466 mmHg 53%
    01:00 -17°C° 0 mm 2 m/S 465 mmHg 48%
    02:00 -17°C° 0 mm 2 m/S 465 mmHg 44%
    03:00 -17°C° 0 mm 2 m/S 465 mmHg 41%
    04:00 -17°C° 0 mm 2 m/S 465 mmHg 38%
    05:00 -17°C° 0 mm 2 m/S 464 mmHg 35%
    06:00 -17°C° 0 mm 2 m/S 465 mmHg 35%
    07:00 -16°C° 0 mm 2 m/S 466 mmHg 35%
    08:00 -15°C° 0 mm 2 m/S 467 mmHg 35%
    09:00 -13°C° 0 mm 2 m/S 468 mmHg 39%
    10:00 -9°C° 0 mm 2 m/S 470 mmHg 42%
    11:00 -6°C° 0 mm 2 m/S 472 mmHg 46%
    18:00 -10°C° 0 mm 3 m/S 469 mmHg 71%
    19:00 -14°C° 0 mm 3 m/S 468 mmHg 73%
    20:00 -16°C° 0 mm 3 m/S 467 mmHg 76%
    21:00 -16°C° 0 mm 3 m/S 467 mmHg 72%
    22:00 -16°C° 0 mm 3 m/S 467 mmHg 69%
    23:00 -16°C° 0 mm 3 m/S 467 mmHg 65%

    22 Februar, Samstag

    Zeit Temperatur Niederschläge Wind Luftdruck Luftfeuchtigkeit
    00:00 -16°C° 0 mm 3 m/S 467 mmHg 64%
    01:00 -15°C° 0 mm 2 m/S 467 mmHg 63%
    02:00 -15°C° 0 mm 2 m/S 467 mmHg 62%
    03:00 -15°C° 0 mm 2 m/S 466 mmHg 63%
    04:00 -16°C° 0 mm 2 m/S 466 mmHg 65%
    05:00 -16°C° 0 mm 2 m/S 466 mmHg 67%
    06:00 -15°C° 0 mm 2 m/S 467 mmHg 70%
    07:00 -15°C° 0 mm 2 m/S 467 mmHg 72%
    08:00 -14°C° 0 mm 2 m/S 468 mmHg 74%
    09:00 -12°C° 0 mm 2 m/S 470 mmHg 73%
    10:00 -9°C° 0 mm 2 m/S 471 mmHg 71%
    11:00 -7°C° 0 mm 2 m/S 473 mmHg 69%
    12:00 -6°C° 0 mm 2 m/S 473 mmHg 70%
    13:00 -3°C° 0 mm 1 m/S 473 mmHg 71%
    14:00 -3°C° 0 mm 1 m/S 474 mmHg 71%
    15:00 -3°C° 0 mm 1 m/S 473 mmHg 75%
    16:00 -4°C° 0 mm 1 m/S 472 mmHg 79%
    17:00 -6°C° 0 mm 1 m/S 471 mmHg 83%
    18:00 -8°C° 0 mm 1 m/S 470 mmHg 84%
    19:00 -10°C° 0 mm 1 m/S 469 mmHg 85%
    20:00 -12°C° 0 mm 1 m/S 467 mmHg 87%
    21:00 -13°C° 0 mm 1 m/S 467 mmHg 83%
    22:00 -13°C° 0 mm 1 m/S 467 mmHg 80%
    23:00 -14°C° 0 mm 1 m/S 466 mmHg 77%

    23 Februar, Sonntag

    Zeit Temperatur Niederschläge Wind Luftdruck Luftfeuchtigkeit
    00:00 -14°C° 0 mm 1 m/S 466 mmHg 71%
    01:00 -15°C° 0 mm 1 m/S 466 mmHg 65%
    02:00 -15°C° 0 mm 1 m/S 465 mmHg 59%
    03:00 -15°C° 0 mm 1 m/S 465 mmHg 52%
    04:00 -15°C° 0 mm 1 m/S 465 mmHg 45%
    05:00 -15°C° 0 mm 1 m/S 464 mmHg 39%
    06:00 -15°C° 0 mm 1 m/S 465 mmHg 34%
    07:00 -14°C° 0 mm 1 m/S 466 mmHg 30%
    08:00 -13°C° 0 mm 1 m/S 466 mmHg 26%
    09:00 -13°C° 0 mm 2 m/S 468 mmHg 33%
    10:00 -9°C° 0 mm 2 m/S 470 mmHg 39%
    11:00 -7°C° 0 mm 2 m/S 472 mmHg 46%
    12:00 -6°C° 0 mm 2 m/S 472 mmHg 51%
    13:00 -5°C° 0 mm 2 m/S 472 mmHg 56%
    14:00 -5°C° 0 mm 3 m/S 473 mmHg 61%
    15:00 -6°C° 0 mm 3 m/S 472 mmHg 67%
    16:00 -7°C° 0 mm 3 m/S 471 mmHg 73%
    17:00 -8°C° 0 mm 3 m/S 470 mmHg 80%
    18:00 -12°C° 0 mm 3 m/S 468 mmHg 81%
    19:00 -14°C° 0 mm 3 m/S 467 mmHg 83%
    20:00 -16°C° 0 mm 3 m/S 466 mmHg 85%
    21:00 -16°C° 0 mm 3 m/S 466 mmHg 85%
    22:00 -17°C° 0 mm 3 m/S 465 mmHg 84%
    23:00 -18°C° 0 mm 3 m/S 465 mmHg 83%
    Mehr zeigen